CAPE
0 0 0 0 0 0 0 0 0 54 27 41 60 91 84 150 105 57 298 381 449 386 427 525 496 471 438 546 549 545 610 557 518 499 487 435 352 346 458 598 472 374 351 100 15 15 8 0 0
0 0 0 0 0 0 0 0 5 55 66 20 35 78 53 41 353 360 340 596 579 439 501 618 595 610 626 737 662 626 651 600 575 533 416 324 364 458 404 211 313 234 39 2 0 0 0 0 0
0 0 0 0 0 0 0 33 83 110 58 3 0 0 0 0 138 269 555 696 532 488 567 686 656 718 738 813 780 753 706 610 562 482 425 512 442 236 216 205 65 11 5 0 0 0 0 0 0
0 0 0 0 0 0 0 112 84 59 11 8 0 0 84 182 92 340 732 714 530 482 618 602 624 753 787 839 809 723 620 553 497 506 568 393 131 140 116 5 0 0 0 0 0 0 0 0 0
0 0 0 0 0 0 4 138 63 38 1 0 1 3 21 288 327 482 670 506 480 529 668 658 578 671 754 789 686 613 551 489 565 509 318 113 101 43 0 0 0 0 0 0 0 0 0 0 0
0 0 0 0 0 0 56 82 40 19 17 24 60 26 118 314 371 328 400 447 494 650 709 748 632 582 575 541 498 507 483 487 422 188 53 36 8 0 0 0 0 0 0 0 0 0 0 0 0
0 0 0 0 21 64 117 84 30 13 1 13 114 148 304 347 304 333 333 396 491 559 619 573 557 493 461 461 446 437 457 337 105 11 24 0 0 0 0 0 0 0 0 0 0 0 0 0 0
0 0 0 0 23 55 25 81 0 0 11 45 182 79 325 303 241 288 322 328 366 333 271 216 264 363 359 430 330 275 177 51 3 0 0 0 0 0 0 0 0 0 0 0 0 0 0 0 0
0 0 0 4 74 5 24 12 0 1 32 32 3 283 451 205 214 275 287 195 74 4 0 0 1 0 6 47 49 18 8 0 4 3 8 8 60 52 43 0 0 0 0 0 0 0 0 0 0
0 0 0 0 32 0 8 13 0 58 66 8 42 168 267 193 287 253 40 0 0 0 0 0 0 0 0 0 3 7 15 14 68 74 73 82 78 109 109 57 3 0 0 0 0 0 0 0 0
0 0 0 0 1 4 4 31 56 116 99 17 36 303 316 215 98 1 0 0 0 0 0 0 0 0 0 0 0 0 14 17 33 82 121 116 120 135 141 165 72 1 0 0 0 0 0 0 0
0 0 0 0 0 0 21 25 112 138 10 35 113 371 204 83 0 0 0 0 0 0 0 0 0 0 0 0 0 0 5 29 100 153 165 221 220 226 189 82 0 0 0 0 0 0 0 0 0
0 0 0 0 0 1 2 47 181 42 0 59 210 231 48 0 0 0 0 0 0 0 0 0 0 0 0 0 0 0 20 113 185 244 294 222 138 29 0 0 0 0 0 0 0 0 0 0 0
0 0 0 0 0 0 0 2 16 0 0 64 147 68 2 0 0 0 0 0 0 0 0 0 0 0 0 0 0 0 12 53 77 139 28 2 0 0 0 0 0 0 0 0 0 0 0 0 0
0 0 0 0 0 0 0 0 0 1 0 50 64 0 0 0 0 0 0 0 0 0 0 0 10 0 0 0 0 0 0 0 4 0 0 0 0 0 0 0 0 0 0 0 0 0 0 0 0
0 0 0 0 0 0 0 0 0 19 5 4 25 1 0 0 0 0 0 0 0 0 2 10 4 0 0 0 0 0 0 0 0 0 0 0 0 0 0 0 0 0 0 0 0 0 0 0 0
0 0 0 0 0 0 0 0 0 11 23 0 0 0 0 0 0 0 0 0 0 0 1 0 0 0 0 0 0 0 0 0 0 0 0 0 0 0 0 0 0 0 0 0 0 0 0 0 0
0 0 0 0 0 0 0 0 0 0 57 1 0 0 0 0 0 0 0 0 0 3 0 0 0 0 0 0 0 0 0 0 0 0 0 0 0 0 0 0 0 0 0 0 0 0 0 0 0
0 0 0 0 0 0 0 0 0 0 0 14 3 1 0 0 0 2 2 5 57 105 120 20 3 0 0 0 0 0 0 0 0 0 0 0 0 0 0 0 0 0 0 0 0 0 0 0 0
0 0 0 0 0 0 0 0 0 0 0 0 0 0 0 0 16 27 36 26 170 110 104 94 0 0 0 0 0 0 0 0 0 0 0 0 0 0 0 0 0 0 0 0 0 0 0 0 0
0 0 0 0 0 0 0 0 0 0 0 0 0 0 0 0 2 0 0 0 0 0 0 0 0 0 0 0 0 0 0 0 0 0 0 0 0 0 0 0 0 0 0 0 0 0 0 0 0
0 0 0 0 0 0 0 0 0 0 0 0 0 0 0 0 0 0 0 0 0 0 0 0 0 0 0 0 0 0 0 0 0 0 0 0 0 0 0 0 0 0 0 0 0 0 0 0 0
0 0 0 0 0 0 0 0 0 0 0 0 0 0 0 0 0 0 0 0 0 0 0 0 0 0 0 0 0 0 0 0 0 0 0 0 0 0 0 0 0 0 0 0 0 0 0 2 5
0 0 0 0 0 0 0 0 0 0 0 0 0 0 0 0 0 0 0 0 0 0 0 0 0 0 0 0 0 0 0 0 0 0 0 0 0 0 0 0 0 0 0 0 0 0 2 3 1
0 0 0 0 0 0 0 0 0 0 0 0 0 0 0 0 0 0 0 0 0 0 0 0 0 0 0 0 0 0 0 0 0 0 0 0 0 0 0 0 0 0 0 0 2 9 15 25 25
0 0 0 0 0 0 0 0 0 0 0 0 0 0 0 0 0 0 0 0 0 0 0 0 0 0 0 0 0 0 0 0 0 0 0 0 0 0 0 0 0 0 0 0 0 11 17 8 7
0 0 0 0 0 0 0 0 0 0 0 0 0 0 0 0 0 0 0 0 0 0 0 0 0 0 0 0 0 0 0 0 0 0 0 0 0 0 0 0 0 0 1 17 39 40 1 1 1
0 0 0 0 0 0 0 0 0 0 0 0 0 0 0 0 0 0 0 0 0 0 0 0 0 0 0 0 0 0 0 0 0 0 0 0 0 0 0 0 0 0 9 36 24 19 5 3 17
0 0 0 0 0 0 0 0 0 0 0 0 0 0 0 0 0 0 0 0 0 0 0 0 0 0 0 0 0 0 0 0 0 0 0 0 0 0 0 0 0 0 4 1 1 0 0 0 1
0 0 0 0 0 0 0 0 0 0 0 0 0 0 0 0 0 0 0 0 0 0 0 0 0 0 0 0 0 0 0 0 0 0 0 0 0 0 0 0 0 0 0 0 0 1 0 0 0
CIN
0 0 0 0 0 0 0 0 0 -99 -139 -180 -171 -74 -74 -64 -79 -68 -55 -3 -53 -66 -29 -10 -15 -39 -59 -46 -53 -46 -34 -46 -60 -58 -55 -56 -60 -60 -37 -18 -28 -34 -28 -91 -118 -150 -153 0 0
0 0 0 0 0 0 0 0 -42 -123 -125 -136 -163 -76 -75 -79 -3 -3 -25 -2 -29 -53 -24 -8 -23 -35 -39 -20 -35 -43 -46 -53 -49 -51 -63 -78 -75 -52 -59 -89 -45 -56 -141 -78 0 0 0 0 0
0 0 0 0 0 0 0 -92 -108 -108 -108 -118 0 0 0 0 -42 -43 -16 0 -30 -34 -20 -10 -22 -20 -29 -24 -31 -38 -31 -41 -47 -60 -75 -48 -62 -116 -103 -97 -153 -222 -249 0 0 0 0 0 0
0 0 0 0 0 0 0 -73 -100 -108 -77 -71 0 0 -83 -88 -62 -51 0 0 -26 -34 -13 -24 -20 -17 -23 -17 -25 -40 -40 -63 -73 -71 -50 -87 -164 -145 -125 -178 0 0 0 0 0 0 0 0 0
0 0 0 0 0 0 -57 -55 -97 -62 -16 0 -11 -18 -77 -65 -48 -48 -10 -25 -52 -36 -17 -10 -29 -29 -22 -15 -40 -51 -84 -91 -77 -79 -116 -169 -159 -182 0 0 0 0 0 0 0 0 0 0 0
0 0 0 0 0 0 -134 -91 -121 -100 -17 -35 -48 -110 -121 -49 -51 -72 -70 -55 -45 -40 -11 -1 -25 -59 -65 -72 -95 -102 -113 -100 -106 -177 -220 -225 -279 0 0 0 0 0 0 0 0 0 0 0 0
0 0 0 0 -82 -103 -113 -86 -65 -66 -24 -28 -100 -78 -97 -43 -67 -86 -76 -52 -44 -40 -25 -39 -61 -96 -100 -105 -126 -129 -112 -136 -216 -269 -224 0 0 0 0 0 0 0 0 0 0 0 0 0 0
0 0 0 0 -66 -71 -113 -102 -128 0 -55 -115 -102 -70 -83 -85 -88 -77 -83 -97 -80 -120 -165 -188 -185 -147 -147 -121 -160 -161 -187 -236 -157 0 0 0 0 0 0 0 0 0 0 0 0 0 0 0 0
0 0 0 -54 -48 -58 -88 -50 0 -8 -60 -161 -150 -143 -112 -184 -159 -144 -155 -205 -267 -131 0 0 -62 0 -202 -178 -251 -264 -184 0 -77 -73 -231 -61 -178 -169 -172 0 0 0 0 0 0 0 0 0 0
0 0 0 0 -57 0 -24 -39 0 -63 -84 -167 -202 -243 -182 -201 -163 -187 -166 0 0 0 0 0 0 0 0 0 -33 -101 -249 -249 -184 -168 -165 -153 -146 -116 -100 -108 -81 0 0 0 0 0 0 0 0
0 0 0 0 -13 -4 -38 -88 -118 -46 -57 -102 -86 -162 -152 -202 -267 -29 0 0 0 0 0 0 0 0 0 0 0 0 -232 -213 -188 -162 -149 -143 -115 -81 -64 -59 -89 -22 0 0 0 0 0 0 0
0 0 0 0 0 0 -57 -113 -59 -52 -64 -152 -176 -138 -221 -280 0 0 0 0 0 0 0 0 0 0 0 0 0 0 -158 -165 -122 -126 -140 -99 -77 -51 -52 -76 0 0 0 0 0 0 0 0 0
0 0 0 0 0 -8 -59 -61 -41 -53 0 -196 -207 -199 -284 0 0 0 0 0 0 0 0 0 0 0 0 0 0 0 -147 -103 -105 -75 -65 -82 -78 -90 0 0 0 0 0 0 0 0 0 0 0
0 0 0 0 0 0 -14 -38 -79 0 0 -177 -203 -255 -46 0 0 0 0 0 0 0 0 0 0 0 0 0 0 0 -210 -182 -130 -103 -55 -69 0 0 0 0 0 0 0 0 0 0 0 0 0
0 0 0 0 0 0 0 0 0 -56 0 -164 -242 0 0 0 0 0 0 0 0 0 0 0 -246 -10 0 0 0 0 0 -3 -16 -6 0 0 0 0 0 0 0 0 0 0 0 0 0 0 0
0 0 0 0 0 0 0 0 0 -315 -183 -129 -269 -40 0 0 0 0 0 0 0 0 -234 -211 -206 0 0 0 0 0 0 0 0 0 0 0 0 0 0 0 0 0 0 0 0 0 0 0 0
0 0 0 0 0 0 0 0 0 -84 -243 0 0 0 0 0 0 0 0 0 0 0 -122 0 0 0 0 0 0 0 0 0 0 0 0 0 0 0 0 0 0 0 0 0 0 0 0 0 0
0 0 0 0 0 0 0 0 0 0 -278 -65 0 0 0 0 0 0 0 0 0 -273 0 0 0 0 0 0 0 0 0 0 0 0 0 0 0 0 0 0 0 0 0 0 0 0 0 0 0
0 0 0 0 0 0 0 0 0 0 -1 -355 -370 -260 0 0 0 -474 -452 -396 -314 -209 -174 -226 -138 -1 0 0 0 0 0 0 0 0 0 0 0 0 0 0 0 0 0 0 0 0 0 0 0
0 0 0 0 0 0 0 0 0 0 0 0 0 0 0 0 -365 -360 -351 -306 -198 -198 -156 -110 0 0 0 0 0 0 0 0 0 0 0 0 0 0 0 0 0 0 0 0 0 0 0 0 0
0 0 0 0 0 0 0 0 0 0 0 0 0 0 0 0 -151 0 0 0 0 0 0 0 0 0 0 0 0 0 0 0 0 0 0 0 0 0 0 0 0 0 0 0 0 0 0 0 0
0 0 0 0 0 0 0 0 0 0 0 0 0 0 0 0 0 0 0 0 0 0 0 0 0 0 0 0 0 0 0 0 0 0 0 0 0 0 0 0 0 0 0 0 0 0 0 0 0
0 0 0 0 0 0 0 0 0 0 0 0 0 0 0 0 0 0 0 0 0 0 0 0 0 0 0 0 0 0 0 0 0 0 0 0 0 0 0 0 0 0 0 0 0 0 0 0 -1
0 0 0 0 0 0 0 0 0 0 0 0 0 0 0 0 0 0 0 0 0 0 0 0 0 0 0 0 0 0 0 0 0 0 0 0 0 0 0 0 0 0 0 0 0 -10 -8 -12 -3
0 0 0 0 0 0 0 0 0 0 0 0 0 0 0 0 0 0 0 0 0 0 0 0 0 0 0 0 0 0 0 0 0 0 0 0 0 0 0 0 0 0 0 0 -23 -2 -1 -2 -1
0 0 0 0 0 0 0 0 0 0 0 0 0 0 0 0 0 0 0 0 0 0 0 0 0 0 0 0 0 0 0 0 0 0 0 0 0 0 0 0 0 0 0 0 0 -26 -6 -6 -2
0 0 0 0 0 0 0 0 0 0 0 0 0 0 0 0 0 0 0 0 0 0 0 0 0 0 0 0 0 0 0 0 0 0 0 0 0 0 0 0 0 0 -12 -42 -24 -17 -6 0 -2
0 0 0 0 0 0 0 0 0 0 0 0 0 0 0 0 0 0 0 0 0 0 0 0 0 0 0 0 0 0 0 0 0 0 0 0 0 0 0 0 0 0 -39 -22 -21 -8 -1 -3 -8
0 0 0 0 0 0 0 0 0 0 0 0 0 0 0 0 0 0 0 0 0 0 0 0 0 0 0 0 0 0 0 0 0 0 0 0 0 0 0 0 0 0 -30 -11 -13 0 0 -2 -12
0 0 0 0 0 0 0 0 0 0 0 0 0 0 0 0 0 0 0 0 0 0 0 0 0 0 0 0 0 0 0 0 0 0 0 0 0 0 0 0 0 0 0 0 -1 0 0 0 0
Wind_Speed
15 14 13 13 19 22 25 21 19 15 16 11 8 7 8 10 9 12 8 2 10 11 12 16 16 17 17 16 16 16 15 14 14 15 16 17 18 19 20 21 21 22 22 22 23 23 24 24 24
15 13 12 15 21 24 23 20 18 14 5 6 8 8 11 9 14 8 1 3 8 14 16 16 16 16 16 15 15 15 13 13 13 14 15 16 18 19 20 20 21 21 22 23 23 24 24 24 25
14 12 13 15 19 22 20 14 5 5 3 8 9 12 12 13 12 4 5 9 16 18 16 16 16 15 15 14 14 13 13 13 14 15 15 17 18 19 20 20 21 21 22 22 23 24 24 24 24
12 12 15 18 21 14 15 5 6 5 9 11 9 13 15 13 5 8 6 16 16 16 16 16 15 15 14 13 13 13 14 15 15 15 16 17 18 19 20 20 21 21 22 23 23 24 24 24 25
14 13 16 18 17 13 10 1 5 7 7 16 17 12 13 10 6 9 11 15 17 14 14 15 14 14 13 11 12 14 15 15 15 16 16 17 18 19 19 20 20 21 22 23 24 24 25 25 26
14 14 17 18 17 13 7 4 7 8 11 9 16 11 13 9 7 8 16 14 13 14 13 13 13 12 9 11 13 14 14 15 15 16 17 18 18 19 20 20 21 22 23 23 24 25 25 26 26
16 12 14 12 12 9 6 4 6 8 15 17 14 12 12 8 13 14 15 14 12 12 12 12 10 8 9 11 13 13 14 15 15 16 16 17 18 19 20 21 21 22 22 23 24 25 26 26 27
13 12 10 11 9 5 3 3 5 8 15 13 11 13 11 9 18 18 15 12 12 13 13 11 7 7 9 11 12 12 13 14 14 15 16 17 18 19 19 20 20 21 22 23 24 25 25 26 27
11 12 12 11 8 15 4 6 17 15 13 13 13 14 11 18 19 18 15 13 12 13 11 5 6 9 11 12 11 12 12 13 13 14 15 16 17 18 18 19 20 20 21 22 24 24 25 25 26
14 15 21 26 17 6 15 8 8 9 9 11 12 12 16 18 19 21 22 24 25 23 23 18 12 12 11 9 9 9 10 11 12 13 13 15 16 16 18 18 19 20 22 23 24 24 24 25 26
13 21 23 21 19 16 8 10 11 7 10 13 8 13 18 19 22 25 27 27 25 20 16 16 11 8 7 8 8 9 10 11 11 12 13 14 15 15 17 18 20 21 23 23 23 23 24 25 26
18 20 20 16 8 21 5 7 10 8 13 17 21 23 20 24 24 25 25 23 20 14 15 11 7 8 8 9 9 11 11 12 12 14 15 15 15 17 19 19 20 22 23 23 23 23 24 26 27
16 15 15 14 24 6 9 8 7 9 18 20 22 22 23 23 23 23 19 16 11 14 13 10 8 8 9 10 12 12 13 15 16 18 18 17 17 18 19 20 21 22 23 24 24 24 26 27 29
6 8 7 8 2 5 8 8 11 13 18 22 24 22 20 19 22 18 15 12 13 11 9 9 8 9 10 12 14 16 18 20 21 21 19 17 17 17 18 20 21 23 24 25 26 27 28 30 31
8 7 6 7 7 6 11 8 11 8 17 22 19 17 16 14 9 9 10 4 8 5 7 8 9 10 11 13 15 18 22 21 20 17 17 17 17 17 19 20 22 23 25 26 27 29 30 33 34
11 11 8 9 6 7 8 9 13 7 18 18 15 14 12 8 7 11 15 15 5 4 5 7 8 9 12 13 16 24 23 21 16 14 15 16 17 18 20 22 23 24 27 29 31 33 35 36 37
13 13 12 8 9 7 9 9 15 13 5 4 8 7 6 6 11 15 16 16 9 7 6 6 8 9 13 15 15 25 20 15 15 15 17 18 19 20 21 23 25 28 30 32 34 36 37 39 39
15 11 10 7 10 10 7 9 13 15 3 6 6 7 8 11 15 16 16 15 12 9 8 7 8 12 18 18 17 14 14 14 15 17 18 19 20 21 23 25 28 30 32 33 35 36 36 36 37
10 13 10 12 14 12 12 13 16 16 10 7 7 7 9 12 14 15 15 14 11 8 7 7 9 12 13 14 13 14 15 16 17 18 19 20 21 23 26 28 30 31 32 33 33 34 36 36 37
10 9 13 14 18 18 18 15 16 15 13 10 5 6 8 10 11 13 13 12 11 10 9 9 10 11 12 13 14 17 16 18 19 21 20 22 23 24 25 27 29 30 31 33 34 35 37 36 36
12 12 17 16 15 14 18 20 18 17 15 11 8 7 8 8 10 11 12 13 13 13 12 11 11 12 13 13 16 18 18 19 20 20 21 22 23 25 27 28 29 31 33 35 36 36 37 39 36
18 18 16 17 20 23 20 26 21 18 16 10 7 7 6 7 9 11 12 12 13 13 12 13 12 12 13 13 16 18 22 24 23 23 23 24 26 28 29 30 31 32 34 36 36 35 36 36 40
18 15 15 16 16 16 19 22 22 18 15 9 4 3 4 6 8 9 9 11 11 11 11 12 12 13 14 16 19 21 24 25 24 24 24 26 29 30 31 31 33 34 34 35 35 35 35 33 36
8 14 15 16 16 18 18 17 19 12 9 1 4 4 5 6 7 7 8 9 10 12 13 13 13 15 17 20 21 22 23 23 24 25 29 30 32 32 32 32 33 34 34 34 34 34 34 34 34
17 16 21 21 19 18 20 20 23 12 6 10 12 12 11 10 10 8 7 7 7 10 12 11 14 16 18 20 21 21 23 25 27 29 32 33 34 34 35 35 35 35 35 34 34 35 36 35 35
17 18 17 23 22 21 17 19 10 7 9 12 15 15 14 13 11 8 6 5 7 10 12 11 14 16 19 21 21 23 25 27 29 31 33 33 35 36 36 37 37 37 35 34 33 34 34 34 35
19 18 15 16 19 20 19 7 10 16 10 11 14 14 13 11 8 6 5 6 8 11 11 12 14 17 19 20 23 25 28 31 32 33 34 35 36 38 39 40 39 37 35 33 32 33 35 32 30
19 9 17 16 19 19 18 13 9 12 10 10 12 12 10 7 5 5 6 8 10 11 12 13 15 16 19 23 26 28 30 31 32 33 36 38 39 40 40 41 40 37 34 31 31 33 30 29 26
17 17 14 12 14 15 18 14 13 10 8 7 8 8 5 3 4 7 8 9 10 12 14 15 16 19 22 25 26 29 30 31 33 35 36 38 39 40 41 41 39 36 32 31 33 30 27 25 24
17 13 10 15 14 15 16 16 15 16 8 4 3 2 2 4 6 7 8 9 11 13 14 17 19 21 23 24 26 29 31 32 34 35 37 38 40 40 41 40 35 32 31 31 30 26 22 22 22
Wind_Direction
318 314 317 320 293 289 279 294 295 299 301 320 327 334 330 329 323 320 326 336 103 99 92 96 95 95 91 88 81 74 67 55 47 47 44 43 41 37 37 40 40 39 35 31 29 26 22 19 14
311 312 316 310 288 279 282 294 294 295 337 36 7 346 331 322 325 340 217 60 95 99 100 95 95 92 88 83 78 71 56 42 39 37 38 41 41 43 41 40 35 32 30 27 26 24 23 21 17
313 310 309 304 293 279 280 308 335 348 349 322 306 310 320 327 318 257 291 84 103 106 100 97 94 89 86 80 73 60 48 45 45 48 44 44 44 41 39 37 35 35 31 28 23 20 17 16 14
314 309 311 292 290 291 294 294 41 29 298 308 326 311 303 312 313 296 71 104 105 104 100 96 93 89 80 74 63 56 61 59 57 47 48 48 43 40 40 39 37 33 29 25 22 18 15 14 10
306 307 293 291 293 305 306 230 356 348 297 314 306 315 327 332 5 82 95 106 110 103 98 95 92 84 77 59 61 71 68 62 58 57 52 47 44 45 43 40 38 36 32 29 25 21 18 14 8
306 302 291 287 285 293 299 317 312 337 299 322 310 319 307 337 41 82 102 103 101 102 95 91 88 77 51 65 74 75 68 66 62 58 55 54 53 47 43 42 37 35 30 28 24 21 16 14 10
302 304 294 293 293 286 272 359 3 324 306 294 316 314 340 355 87 97 100 100 96 92 91 88 73 49 53 68 76 72 69 66 62 57 55 55 52 49 45 39 34 29 24 20 17 15 14 9 4
300 299 291 290 298 306 284 312 21 353 303 341 348 328 347 72 106 102 98 93 94 93 92 80 45 33 62 72 73 68 67 64 59 57 56 53 47 43 37 34 29 22 17 12 9 8 8 4 0
305 283 275 271 295 250 299 327 271 298 309 318 320 355 52 101 105 102 101 97 94 93 83 358 30 58 67 68 63 65 65 65 59 54 48 44 40 34 27 25 21 21 16 12 5 2 2 0 357
279 268 249 229 248 246 142 47 7 325 322 334 339 23 89 99 105 112 115 122 132 133 141 122 82 76 68 45 49 50 51 48 46 38 41 36 33 25 15 14 12 8 6 7 4 2 2 358 355
285 246 241 248 243 232 171 343 351 348 309 328 20 91 105 107 114 123 133 142 138 123 105 106 79 40 18 13 31 29 30 30 25 23 17 19 23 16 8 2 2 360 359 4 3 359 356 354 352
265 269 258 255 280 212 351 359 332 325 316 96 102 111 108 122 126 133 137 136 125 97 103 78 42 28 12 1 13 18 14 360 6 3 2 13 9 2 357 357 356 354 356 359 357 354 351 348 346
259 269 250 230 205 290 53 17 350 344 63 74 97 107 117 125 130 136 128 116 90 99 86 60 44 28 20 10 359 350 348 335 332 336 343 358 2 359 357 358 356 353 354 354 353 349 344 341 339
343 309 314 269 51 35 47 11 51 53 80 92 105 106 109 113 129 120 114 107 115 90 73 44 32 25 18 5 353 345 325 314 317 325 348 0 1 3 358 358 355 352 351 349 346 342 339 336 333
274 344 325 325 47 18 61 345 340 34 98 106 97 93 93 94 78 88 290 19 103 17 47 40 23 20 7 0 353 347 328 326 327 341 356 4 3 2 359 356 354 351 349 346 342 338 335 331 329
270 264 283 301 2 10 39 327 330 25 117 109 99 93 87 51 351 306 288 297 12 12 11 17 12 11 4 360 340 330 327 351 15 19 16 11 7 4 359 355 352 349 345 340 336 332 328 328 327
276 270 275 310 340 24 339 346 293 274 73 30 71 63 42 358 309 300 304 312 338 347 351 352 353 356 339 335 339 345 339 16 26 27 20 13 7 3 358 354 350 345 342 338 334 332 331 328 327
262 278 294 318 314 340 339 327 292 276 3 314 317 329 325 315 305 308 316 322 327 337 348 352 346 323 323 324 9 26 36 32 26 16 14 9 5 1 357 353 347 343 340 338 337 335 334 332 331
302 288 314 297 275 282 295 290 280 290 312 304 309 325 329 323 331 334 336 341 349 3 359 7 348 346 7 20 27 24 17 17 14 13 11 6 2 356 350 345 344 344 342 341 340 338 335 333 333
315 323 297 274 252 252 253 285 300 313 310 305 324 334 338 346 360 359 3 21 32 41 35 28 28 44 44 42 26 17 18 11 7 5 3 359 358 356 353 350 347 346 344 342 341 339 335 333 334
290 275 244 253 256 272 261 273 299 315 320 317 322 336 351 7 10 25 38 42 41 45 45 46 49 45 42 29 17 15 13 9 2 0 358 358 358 355 350 348 345 343 341 339 339 338 336 332 332
237 247 258 258 250 244 275 249 299 309 313 324 325 333 358 20 32 50 61 56 53 51 42 40 34 26 23 21 1 357 350 349 351 351 352 352 350 347 345 343 342 341 340 339 338 338 336 333 329
240 280 291 289 299 312 307 301 305 312 311 314 328 13 33 22 45 59 56 52 38 37 36 22 22 16 11 359 350 348 345 348 350 350 349 345 343 342 342 341 339 338 338 338 337 337 336 334 332
335 307 303 307 315 312 317 319 321 329 328 101 125 113 96 64 69 62 41 35 17 12 1 1 356 351 349 346 347 348 350 351 349 346 341 339 340 340 341 340 338 338 337 336 335 334 333 332 330
287 294 280 288 304 313 306 308 279 342 31 147 148 143 133 122 117 102 90 75 43 11 4 358 349 349 350 352 353 353 351 347 343 341 339 338 338 339 340 340 338 336 335 334 334 333 332 332 331
291 285 292 253 253 260 317 223 8 116 125 139 146 142 138 136 133 122 96 63 38 22 12 5 357 352 350 349 350 349 345 342 340 340 339 338 338 338 339 338 336 335 334 333 333 332 333 333 331
272 281 297 291 285 271 281 346 187 355 71 114 136 137 141 138 126 112 74 41 23 11 12 8 1 354 352 350 346 343 341 339 338 338 339 339 339 338 337 336 336 335 333 333 334 334 332 333 332
276 324 271 282 261 255 302 351 66 37 85 105 135 145 142 127 99 62 25 17 15 14 11 9 4 359 353 346 343 341 341 340 341 340 339 339 339 339 338 337 336 334 334 335 335 334 335 335 337
275 274 299 322 324 335 345 17 21 50 80 117 139 145 135 85 39 21 23 22 17 8 5 6 4 356 349 344 344 341 342 343 343 342 342 341 340 339 339 337 337 336 337 338 337 337 338 338 339
280 295 319 307 332 341 348 355 1 360 28 44 98 114 29 21 13 21 22 18 10 5 5 360 354 350 347 347 346 344 343 343 342 343 342 342 341 340 339 339 340 340 339 338 338 340 343 343 344